Tracking 19709 objects as of 20-Jun-2019
HD Live streaming from Space Station
objects crossing your sky now

ARIANE 2 DEB

Track ARIANE 2 DEB now!


NORAD ID: 27595
Int'l Code: 1988-040E
Perigee: 528.1 km
Apogee: 35,392.2 km
Inclination: 7.4 °
Period: 629.5 minutes
Semi major axis: 24331 km
RCS: 8.9719 m2 (large)
Launch date: May 17, 1988
Source: France (FR)
Launch site: FRENCH GUIANA (FRGUI)

Note: This is SATELLITE DEBRIS
aabbcc
Your satellite tracking list
Your tracking list is empty




NASA's NSSDC Master Catalog

Two Line Element Set (TLE):
1 27595U 88040E   19170.28914148 -.00000031 +00000-0 +51519-3 0  9992
2 27595 007.4160 279.1536 7164510 274.7415 014.3459 02.28749002141078
Source of the keplerian elements: AFSPC